Time,TemperatureF,DewpointF,PressureIn,WindDirection,WindDirectionDegrees,WindSpeedMPH,WindSpeedGustMPH,Humidity,HourlyPrecipIn,Conditions,Clouds,dailyrainin,SoftwareType,DateUTC
2013-10-17 00:02:00,36.7,31.5,29.76,SW,225,4.0,4.0,81,0.00,,,0.00,meteohub,2013-10-17 05:02:00,
2013-10-17 00:07:00,36.5,31.3,29.76,South,180,4.0,5.0,81,0.00,,,0.00,meteohub,2013-10-17 05:07:00,
2013-10-17 00:13:00,36.3,31.1,29.76,South,180,4.0,5.0,81,0.00,,,0.00,meteohub,2013-10-17 05:13:00,
2013-10-17 00:18:00,36.1,30.9,29.75,South,180,4.0,5.0,81,0.00,,,0.00,meteohub,2013-10-17 05:18:00,
2013-10-17 00:23:00,35.8,30.6,29.75,South,180,4.0,4.0,81,0.00,,,0.00,meteohub,2013-10-17 05:23:00,
2013-10-17 00:28:00,35.6,30.4,29.76,South,180,4.0,5.0,81,0.00,,,0.00,meteohub,2013-10-17 05:28:00,
2013-10-17 00:33:00,35.4,30.6,29.76,SW,225,5.0,5.0,82,0.00,,,0.00,meteohub,2013-10-17 05:33:00,
2013-10-17 00:38:00,35.4,30.6,29.76,SW,225,4.0,5.0,82,0.00,,,0.00,meteohub,2013-10-17 05:38:00,
2013-10-17 00:43:00,35.6,30.4,29.75,South,180,5.0,5.0,81,0.00,,,0.00,meteohub,2013-10-17 05:43:00,
2013-10-17 00:48:00,35.8,30.7,29.75,South,180,4.0,6.0,82,0.00,,,0.00,meteohub,2013-10-17 05:48:00,
2013-10-17 00:53:00,35.8,30.7,29.76,South,180,4.0,6.0,82,0.00,,,0.00,meteohub,2013-10-17 05:53:00,
2013-10-17 00:58:00,35.4,30.7,29.75,South,180,4.0,6.0,83,0.00,,,0.00,meteohub,2013-10-17 05:58:00,
2013-10-17 01:03:00,35.4,30.7,29.75,South,180,5.0,5.0,83,0.00,,,0.00,meteohub,2013-10-17 06:03:00,
2013-10-17 01:08:00,35.2,30.6,29.75,South,180,4.0,5.0,83,0.00,,,0.00,meteohub,2013-10-17 06:08:00,
2013-10-17 01:13:00,34.7,29.8,29.76,South,180,5.0,5.0,82,0.00,,,0.00,meteohub,2013-10-17 06:13:00,
2013-10-17 01:19:00,34.7,30.0,29.75,South,180,6.0,6.0,83,0.00,,,0.00,meteohub,2013-10-17 06:19:00,
2013-10-17 01:24:00,35.1,30.4,29.76,South,180,6.0,6.0,83,0.00,,,0.00,meteohub,2013-10-17 06:24:00,
2013-10-17 01:29:00,35.2,30.6,29.75,South,180,4.0,6.0,83,0.00,,,0.00,meteohub,2013-10-17 06:29:00,
2013-10-17 01:34:00,35.6,30.7,29.76,South,180,5.0,6.0,82,0.00,,,0.00,meteohub,2013-10-17 06:34:00,
2013-10-17 01:39:00,36.0,31.3,29.75,South,180,5.0,6.0,83,0.00,,,0.00,meteohub,2013-10-17 06:39:00,
2013-10-17 01:44:00,36.3,31.6,29.75,SW,225,6.0,6.0,83,0.00,,,0.00,meteohub,2013-10-17 06:44:00,
2013-10-17 01:49:00,36.5,31.8,29.75,SW,225,4.0,6.0,83,0.00,,,0.00,meteohub,2013-10-17 06:49:00,
2013-10-17 01:54:00,36.9,32.5,29.75,SW,225,4.0,22.0,84,0.00,,,0.00,meteohub,2013-10-17 06:54:00,
2013-10-17 01:59:00,36.9,32.5,29.75,South,180,4.0,22.0,84,0.00,,,0.00,meteohub,2013-10-17 06:59:00,
2013-10-17 02:04:00,37.0,32.7,29.75,South,180,4.0,6.0,84,0.00,,,0.00,meteohub,2013-10-17 07:04:00,
2013-10-17 02:09:00,36.9,32.5,29.75,South,180,5.0,5.0,84,0.00,,,0.00,meteohub,2013-10-17 07:09:00,
2013-10-17 02:14:00,36.5,32.2,29.75,South,180,5.0,5.0,84,0.00,,,0.00,meteohub,2013-10-17 07:14:00,
2013-10-17 02:19:00,36.5,32.2,29.75,South,180,4.0,5.0,84,0.00,,,0.00,meteohub,2013-10-17 07:19:00,
2013-10-17 02:24:00,36.7,32.4,29.75,SW,225,5.0,5.0,84,0.00,,,0.00,meteohub,2013-10-17 07:24:00,
2013-10-17 02:29:00,37.0,32.7,29.75,SW,225,5.0,5.0,84,0.00,,,0.00,meteohub,2013-10-17 07:29:00,
2013-10-17 02:34:00,37.2,33.1,29.74,South,180,6.0,6.0,85,0.00,,,0.00,meteohub,2013-10-17 07:34:00,
2013-10-17 02:39:00,37.4,34.5,29.74,SW,225,6.0,6.0,89,0.00,,,0.00,meteohub,2013-10-17 07:39:00,
2013-10-17 02:45:00,37.6,34.7,29.75,South,180,6.0,6.0,89,0.00,,,0.00,meteohub,2013-10-17 07:45:00,
2013-10-17 02:50:00,37.9,35.1,29.74,South,180,7.0,8.0,89,0.00,,,0.00,meteohub,2013-10-17 07:50:00,
2013-10-17 02:55:00,37.9,35.1,29.74,WSW,248,6.0,8.0,89,0.00,,,0.00,meteohub,2013-10-17 07:55:00,
2013-10-17 03:00:00,38.1,35.2,29.74,SW,225,6.0,8.0,89,0.00,,,0.00,meteohub,2013-10-17 08:00:00,
2013-10-17 03:05:00,38.1,35.2,29.74,WSW,248,6.0,7.0,89,0.00,,,0.00,meteohub,2013-10-17 08:05:00,
2013-10-17 03:10:00,38.3,35.4,29.74,WSW,248,5.0,7.0,89,0.00,,,0.00,meteohub,2013-10-17 08:10:00,
2013-10-17 03:11:00,38.3,35.4,29.74,South,180,5.0,7.0,89,0.00,,,0.00,meteohub,2013-10-17 08:11:00,
2013-10-17 03:16:00,38.3,35.6,29.74,South,180,5.0,7.0,90,0.00,,,0.00,meteohub,2013-10-17 08:16:00,
2013-10-17 03:21:00,38.5,35.8,29.74,SW,225,6.0,7.0,90,0.00,,,0.00,meteohub,2013-10-17 08:21:00,
2013-10-17 03:26:00,38.7,36.0,29.74,SW,225,7.0,7.0,90,0.00,,,0.00,meteohub,2013-10-17 08:26:00,
2013-10-17 03:31:00,39.0,36.3,29.74,SW,225,6.0,7.0,90,0.00,,,0.00,meteohub,2013-10-17 08:31:00,
2013-10-17 03:36:00,39.2,36.3,29.73,SW,225,8.0,8.0,89,0.00,,,0.00,meteohub,2013-10-17 08:36:00,
2013-10-17 03:42:00,39.4,36.5,29.73,SW,225,8.0,10.0,89,0.00,,,0.00,meteohub,2013-10-17 08:42:00,
2013-10-17 03:47:00,39.6,36.9,29.73,WSW,248,7.0,10.0,90,0.00,,,0.00,meteohub,2013-10-17 08:47:00,
2013-10-17 03:52:00,39.7,37.0,29.73,SW,225,6.0,10.0,90,0.00,,,0.00,meteohub,2013-10-17 08:52:00,
2013-10-17 03:57:00,39.7,36.7,29.73,SW,225,6.0,8.0,89,0.00,,,0.00,meteohub,2013-10-17 08:57:00,
2013-10-17 04:02:00,39.9,36.9,29.73,SW,225,6.0,8.0,89,0.00,,,0.00,meteohub,2013-10-17 09:02:00,
2013-10-17 04:07:00,40.1,37.0,29.73,SW,225,5.0,8.0,89,0.00,,,0.00,meteohub,2013-10-17 09:07:00,
2013-10-17 04:12:00,40.1,37.0,29.72,SW,225,6.0,8.0,89,0.00,,,0.00,meteohub,2013-10-17 09:12:00,
2013-10-17 04:17:00,40.1,37.0,29.72,SW,225,6.0,7.0,89,0.00,,,0.00,meteohub,2013-10-17 09:17:00,
2013-10-17 04:22:00,40.1,37.0,29.72,SW,225,6.0,8.0,89,0.00,,,0.00,meteohub,2013-10-17 09:22:00,
2013-10-17 04:27:00,40.3,37.2,29.72,SW,225,6.0,8.0,89,0.00,,,0.00,meteohub,2013-10-17 09:27:00,
2013-10-17 04:32:00,40.3,37.2,29.72,WSW,248,6.0,8.0,89,0.00,,,0.00,meteohub,2013-10-17 09:32:00,
2013-10-17 04:37:00,40.3,37.2,29.72,WSW,248,5.0,7.0,89,0.00,,,0.00,meteohub,2013-10-17 09:37:00,
2013-10-17 04:42:00,54.9,52.3,29.73,NE,45,6.0,8.0,91,0.00,,,0.00,meteohub,2013-10-17 09:42:00,
2013-10-17 04:47:00,40.3,37.2,29.71,SW,225,6.0,8.0,89,0.00,,,0.00,meteohub,2013-10-17 09:47:00,
2013-10-17 04:53:00,40.3,37.2,29.71,SW,225,5.0,8.0,89,0.00,,,0.00,meteohub,2013-10-17 09:53:00,
2013-10-17 04:58:00,40.3,37.2,29.71,SW,225,6.0,7.0,89,0.00,,,0.00,meteohub,2013-10-17 09:58:00,
2013-10-17 05:03:00,40.3,37.2,29.71,SW,225,7.0,7.0,89,0.00,,,0.00,meteohub,2013-10-17 10:03:00,
2013-10-17 05:08:00,40.3,37.2,29.71,SW,225,7.0,8.0,89,0.00,,,0.00,meteohub,2013-10-17 10:08:00,
2013-10-17 05:13:00,40.3,37.2,29.71,South,180,7.0,8.0,89,0.00,,,0.00,meteohub,2013-10-17 10:13:00,
2013-10-17 05:18:00,40.3,37.2,29.71,South,180,6.0,8.0,89,0.00,,,0.00,meteohub,2013-10-17 10:18:00,
2013-10-17 05:23:00,40.3,37.2,29.71,South,180,5.0,8.0,89,0.00,,,0.00,meteohub,2013-10-17 10:23:00,
2013-10-17 05:29:00,40.1,37.0,29.71,WSW,248,6.0,8.0,89,0.00,,,0.00,meteohub,2013-10-17 10:29:00,
2013-10-17 05:34:00,40.1,36.9,29.70,WSW,248,4.0,8.0,88,0.00,,,0.00,meteohub,2013-10-17 10:34:00,
2013-10-17 05:39:00,39.9,36.7,29.71,South,180,5.0,8.0,88,0.00,,,0.00,meteohub,2013-10-17 10:39:00,
2013-10-17 05:44:00,39.9,36.7,29.71,SW,225,5.0,6.0,88,0.00,,,0.00,meteohub,2013-10-17 10:44:00,
2013-10-17 05:49:00,39.7,36.5,29.71,South,180,6.0,6.0,88,0.00,,,0.00,meteohub,2013-10-17 10:49:00,
2013-10-17 05:54:00,39.6,36.3,29.71,South,180,5.0,6.0,88,0.00,,,0.00,meteohub,2013-10-17 10:54:00,
2013-10-17 05:59:00,39.6,36.3,29.71,SW,225,5.0,6.0,88,0.00,,,0.00,meteohub,2013-10-17 10:59:00,
2013-10-17 06:04:00,39.2,36.0,29.71,WSW,248,4.0,6.0,88,0.00,,,0.00,meteohub,2013-10-17 11:04:00,
2013-10-17 06:10:00,39.0,36.1,29.71,South,180,5.0,5.0,89,0.00,,,0.00,meteohub,2013-10-17 11:10:00,
2013-10-17 06:15:00,38.8,36.0,29.71,SW,225,5.0,5.0,89,0.00,,,0.00,meteohub,2013-10-17 11:15:00,
2013-10-17 06:20:00,38.7,35.8,29.70,SW,225,6.0,6.0,89,0.00,,,0.00,meteohub,2013-10-17 11:20:00,
2013-10-17 06:25:00,38.5,35.6,29.70,WSW,248,4.0,6.0,89,0.00,,,0.00,meteohub,2013-10-17 11:25:00,
2013-10-17 06:30:00,38.1,35.2,29.71,South,180,6.0,6.0,89,0.00,,,0.00,meteohub,2013-10-17 11:30:00,
2013-10-17 06:35:00,37.9,35.1,29.71,South,180,4.0,6.0,89,0.00,,,0.00,meteohub,2013-10-17 11:35:00,
2013-10-17 06:40:00,37.6,34.3,29.71,WSW,248,4.0,6.0,88,0.00,,,0.00,meteohub,2013-10-17 11:40:00,
2013-10-17 06:45:00,37.6,34.7,29.71,South,180,4.0,6.0,89,0.00,,,0.00,meteohub,2013-10-17 11:45:00,
2013-10-17 06:50:00,37.6,34.7,29.70,SW,225,4.0,4.0,89,0.00,,,0.00,meteohub,2013-10-17 11:50:00,
2013-10-17 06:55:00,37.4,34.5,29.70,WNW,293,5.0,6.0,89,0.00,,,0.00,meteohub,2013-10-17 11:55:00,
2013-10-17 07:00:00,37.4,34.5,29.70,SW,225,6.0,7.0,89,0.00,,,0.00,meteohub,2013-10-17 12:00:00,
2013-10-17 07:05:00,37.4,34.5,29.71,WSW,248,5.0,7.0,89,0.00,,,0.00,meteohub,2013-10-17 12:05:00,
2013-10-17 07:10:00,37.6,34.7,29.71,SW,225,5.0,8.0,89,0.00,,,0.00,meteohub,2013-10-17 12:10:00,
2013-10-17 07:16:00,37.4,34.5,29.70,SW,225,4.0,8.0,89,0.00,,,0.00,meteohub,2013-10-17 12:16:00,
2013-10-17 07:21:00,37.4,34.5,29.70,South,180,6.0,6.0,89,0.00,,,0.00,meteohub,2013-10-17 12:21:00,
2013-10-17 07:26:00,37.4,34.5,29.70,South,180,5.0,6.0,89,0.00,,,0.00,meteohub,2013-10-17 12:26:00,
2013-10-17 07:31:00,37.4,34.5,29.70,SW,225,4.0,6.0,89,0.00,,,0.00,meteohub,2013-10-17 12:31:00,
2013-10-17 07:36:00,37.4,34.5,29.70,SW,225,4.0,6.0,89,0.00,,,0.00,meteohub,2013-10-17 12:36:00,
2013-10-17 07:41:00,37.6,34.9,29.70,WSW,248,5.0,6.0,90,0.00,,,0.00,meteohub,2013-10-17 12:41:00,
2013-10-17 07:46:00,37.6,34.9,29.70,SW,225,5.0,6.0,90,0.00,,,0.00,meteohub,2013-10-17 12:46:00,
2013-10-17 07:51:00,37.8,35.1,29.70,SW,225,4.0,6.0,90,0.00,,,0.00,meteohub,2013-10-17 12:51:00,
2013-10-17 07:56:00,37.8,35.1,29.71,SW,225,5.0,5.0,90,0.00,,,0.00,meteohub,2013-10-17 12:56:00,
2013-10-17 08:01:00,38.1,35.4,29.70,SW,225,5.0,6.0,90,0.00,,,0.00,meteohub,2013-10-17 13:01:00,
2013-10-17 08:06:00,38.3,35.6,29.70,SW,225,5.0,6.0,90,0.00,,,0.00,meteohub,2013-10-17 13:06:00,
2013-10-17 08:11:00,38.7,36.0,29.70,SW,225,3.0,6.0,90,0.00,,,0.00,meteohub,2013-10-17 13:11:00,
2013-10-17 08:16:00,38.8,36.5,29.71,SW,225,3.0,5.0,91,0.00,,,0.00,meteohub,2013-10-17 13:16:00,
2013-10-17 08:21:00,39.0,36.7,29.70,SW,225,4.0,5.0,91,0.00,,,0.00,meteohub,2013-10-17 13:21:00,
2013-10-17 08:26:00,39.2,36.5,29.70,SW,225,4.0,4.0,90,0.00,,,0.00,meteohub,2013-10-17 13:26:00,
2013-10-17 08:31:00,39.6,36.9,29.71,WSW,248,5.0,5.0,90,0.00,,,0.00,meteohub,2013-10-17 13:31:00,
2013-10-17 08:37:00,39.7,37.0,29.71,SW,225,6.0,6.0,90,0.00,,,0.00,meteohub,2013-10-17 13:37:00,
2013-10-17 08:42:00,39.9,37.2,29.71,WSW,248,6.0,7.0,90,0.00,,,0.00,meteohub,2013-10-17 13:42:00,
2013-10-17 08:47:00,40.1,37.4,29.71,NW,315,5.0,7.0,90,0.00,,,0.00,meteohub,2013-10-17 13:47:00,
2013-10-17 08:52:00,40.1,37.4,29.71,SW,225,4.0,7.0,90,0.00,,,0.00,meteohub,2013-10-17 13:52:00,
2013-10-17 08:57:00,40.5,37.8,29.71,WSW,248,5.0,7.0,90,0.00,,,0.00,meteohub,2013-10-17 13:57:00,
2013-10-17 09:02:00,40.6,37.9,29.71,SW,225,6.0,7.0,90,0.00,,,0.00,meteohub,2013-10-17 14:02:00,
2013-10-17 09:07:00,40.8,38.1,29.71,SW,225,4.0,7.0,90,0.00,,,0.00,meteohub,2013-10-17 14:07:00,
2013-10-17 09:12:00,41.0,37.9,29.71,West,270,7.0,7.0,89,0.00,,,0.00,meteohub,2013-10-17 14:12:00,
2013-10-17 09:17:00,41.2,38.1,29.71,SW,225,8.0,8.0,89,0.00,,,0.00,meteohub,2013-10-17 14:17:00,
2013-10-17 09:22:00,41.4,38.3,29.71,West,270,4.0,8.0,89,0.00,,,0.00,meteohub,2013-10-17 14:22:00,
2013-10-17 09:27:00,41.5,38.3,29.71,West,270,6.0,8.0,88,0.00,,,0.00,meteohub,2013-10-17 14:27:00,
2013-10-17 09:32:00,41.7,38.5,29.71,NW,315,8.0,8.0,88,0.00,,,0.00,meteohub,2013-10-17 14:32:00,
2013-10-17 09:37:00,41.9,38.7,29.71,NW,315,8.0,9.0,88,0.00,,,0.00,meteohub,2013-10-17 14:37:00,
2013-10-17 09:43:00,42.3,39.0,29.71,WSW,248,9.0,9.0,88,0.00,,,0.00,meteohub,2013-10-17 14:43:00,
2013-10-17 09:48:00,42.6,39.4,29.71,SW,225,8.0,9.0,88,0.00,,,0.00,meteohub,2013-10-17 14:48:00,
2013-10-17 09:53:00,43.2,39.6,29.71,SW,225,7.0,9.0,87,0.00,,,0.00,meteohub,2013-10-17 14:53:00,
2013-10-17 09:58:00,43.7,40.1,29.70,SW,225,6.0,9.0,87,0.00,,,0.00,meteohub,2013-10-17 14:58:00,
2013-10-17 10:03:00,44.2,40.3,29.71,West,270,7.0,8.0,86,0.00,,,0.00,meteohub,2013-10-17 15:03:00,
2013-10-17 10:08:00,45.1,40.8,29.70,West,270,5.0,8.0,85,0.00,,,0.00,meteohub,2013-10-17 15:08:00,
2013-10-17 10:13:00,45.9,41.5,29.71,West,270,8.0,8.0,85,0.00,,,0.00,meteohub,2013-10-17 15:13:00,
2013-10-17 10:18:00,46.4,41.9,29.70,WNW,293,5.0,10.0,84,0.00,,,0.00,meteohub,2013-10-17 15:18:00,
2013-10-17 10:23:00,46.4,41.5,29.71,West,270,9.0,10.0,83,0.00,,,0.00,meteohub,2013-10-17 15:23:00,
2013-10-17 10:28:00,46.4,41.2,29.71,West,270,11.0,12.0,82,0.00,,,0.00,meteohub,2013-10-17 15:28:00,
2013-10-17 10:33:00,46.4,40.6,29.72,West,270,12.0,12.0,80,0.00,,,0.00,meteohub,2013-10-17 15:33:00,
2013-10-17 10:38:00,46.2,40.1,29.72,NW,315,8.0,12.0,79,0.00,,,0.00,meteohub,2013-10-17 15:38:00,
2013-10-17 10:44:00,46.6,40.1,29.72,West,270,12.0,13.0,78,0.00,,,0.00,meteohub,2013-10-17 15:44:00,
2013-10-17 10:49:00,46.4,39.6,29.72,West,270,13.0,13.0,77,0.00,,,0.00,meteohub,2013-10-17 15:49:00,
2013-10-17 10:54:00,46.2,39.7,29.72,West,270,16.0,16.0,78,0.00,,,0.00,meteohub,2013-10-17 15:54:00,
2013-10-17 10:59:00,46.2,39.7,29.71,WSW,248,10.0,16.0,78,0.00,,,0.00,meteohub,2013-10-17 15:59:00,
2013-10-17 11:04:00,46.6,39.7,29.71,NW,315,9.0,16.0,77,0.00,,,0.00,meteohub,2013-10-17 16:04:00,
2013-10-17 11:09:00,46.8,39.9,29.71,NW,315,12.0,16.0,77,0.00,,,0.00,meteohub,2013-10-17 16:09:00,
2013-10-17 11:14:00,46.8,39.9,29.70,NW,315,12.0,14.0,77,0.00,,,0.00,meteohub,2013-10-17 16:14:00,
2013-10-17 11:19:00,46.9,40.5,29.71,NW,315,12.0,14.0,78,0.00,,,0.00,meteohub,2013-10-17 16:19:00,
2013-10-17 11:24:00,47.3,40.8,29.71,NW,315,14.0,15.0,78,0.00,,,0.00,meteohub,2013-10-17 16:24:00,
2013-10-17 11:29:00,47.3,40.8,29.70,NW,315,11.0,15.0,78,0.00,,,0.00,meteohub,2013-10-17 16:29:00,
2013-10-17 11:34:00,47.3,40.8,29.71,West,270,12.0,15.0,78,0.00,,,0.00,meteohub,2013-10-17 16:34:00,
2013-10-17 11:39:00,46.9,40.5,29.71,NW,315,15.0,15.0,78,0.00,,,0.00,meteohub,2013-10-17 16:39:00,
2013-10-17 11:44:00,46.6,40.5,29.70,NW,315,14.0,15.0,79,0.00,,,0.00,meteohub,2013-10-17 16:44:00,
2013-10-17 11:49:00,46.8,41.0,29.70,North,0,14.0,15.0,80,0.00,,,0.00,meteohub,2013-10-17 16:49:00,
2013-10-17 11:54:00,46.9,41.2,29.70,NW,315,11.0,15.0,80,0.00,,,0.00,meteohub,2013-10-17 16:54:00,
2013-10-17 11:59:00,46.9,41.2,29.71,West,270,11.0,15.0,80,0.00,,,0.00,meteohub,2013-10-17 16:59:00,
2013-10-17 12:05:00,47.1,41.4,29.71,WNW,293,13.0,14.0,80,0.00,,,0.00,meteohub,2013-10-17 17:05:00,
2013-10-17 12:10:00,47.3,41.4,29.71,NW,315,11.0,14.0,80,0.00,,,0.00,meteohub,2013-10-17 17:10:00,
2013-10-17 12:15:00,47.3,41.4,29.70,NW,315,11.0,14.0,80,0.00,,,0.00,meteohub,2013-10-17 17:15:00,
2013-10-17 12:20:00,47.7,42.1,29.71,NNW,338,10.0,15.0,81,0.00,,,0.00,meteohub,2013-10-17 17:20:00,
2013-10-17 12:25:00,48.0,42.1,29.71,NW,315,11.0,15.0,80,0.00,,,0.00,meteohub,2013-10-17 17:25:00,
2013-10-17 12:30:00,47.8,41.9,29.70,NW,315,12.0,14.0,80,0.00,,,0.00,meteohub,2013-10-17 17:30:00,
2013-10-17 12:35:00,47.7,42.1,29.71,West,270,14.0,14.0,81,0.00,,,0.00,meteohub,2013-10-17 17:35:00,
2013-10-17 12:40:00,47.5,41.9,29.70,NW,315,15.0,15.0,81,0.00,,,0.00,meteohub,2013-10-17 17:40:00,
2013-10-17 12:45:00,47.5,41.9,29.71,NW,315,17.0,17.0,81,0.00,,,0.00,meteohub,2013-10-17 17:45:00,
2013-10-17 12:50:00,47.3,41.7,29.71,West,270,15.0,17.0,81,0.00,,,0.00,meteohub,2013-10-17 17:50:00,
2013-10-17 12:56:00,47.3,42.1,29.70,NW,315,17.0,19.0,82,0.00,,,0.00,meteohub,2013-10-17 17:56:00,
2013-10-17 13:01:00,47.5,42.3,29.71,NW,315,16.0,21.0,82,0.00,,,0.00,meteohub,2013-10-17 18:01:00,
2013-10-17 13:06:00,47.5,42.3,29.70,NW,315,15.0,21.0,82,0.00,,,0.00,meteohub,2013-10-17 18:06:00,
2013-10-17 13:11:00,47.5,42.3,29.71,NW,315,16.0,21.0,82,0.00,,,0.00,meteohub,2013-10-17 18:11:00,
2013-10-17 13:16:00,47.7,42.8,29.71,West,270,19.0,21.0,83,0.00,,,0.00,meteohub,2013-10-17 18:16:00,
2013-10-17 13:21:00,47.3,42.1,29.71,NW,315,21.0,21.0,82,0.00,,,0.00,meteohub,2013-10-17 18:21:00,
2013-10-17 13:26:00,46.9,41.7,29.71,NW,315,17.0,21.0,82,0.00,,,0.00,meteohub,2013-10-17 18:26:00,
2013-10-17 13:31:00,47.1,41.9,29.71,NW,315,17.0,21.0,82,0.00,,,0.00,meteohub,2013-10-17 18:31:00,
2013-10-17 13:36:00,47.3,42.4,29.71,NW,315,21.0,21.0,83,0.00,,,0.00,meteohub,2013-10-17 18:36:00,
2013-10-17 13:41:00,47.1,42.3,29.70,NW,315,21.0,21.0,83,0.00,,,0.00,meteohub,2013-10-17 18:41:00,
2013-10-17 13:46:00,47.1,42.3,29.71,NW,315,19.0,21.0,83,0.00,,,0.00,meteohub,2013-10-17 18:46:00,
2013-10-17 13:51:00,46.9,42.4,29.71,NW,315,17.0,21.0,84,0.00,,,0.00,meteohub,2013-10-17 18:51:00,
2013-10-17 13:56:00,46.9,42.6,29.72,WNW,293,20.0,22.0,85,0.00,,,0.00,meteohub,2013-10-17 18:56:00,
2013-10-17 14:02:00,46.9,43.3,29.71,NW,315,20.0,22.0,87,0.00,,,0.00,meteohub,2013-10-17 19:02:00,
2013-10-17 14:07:00,46.8,43.3,29.72,NW,315,15.0,22.0,88,0.00,,,0.00,meteohub,2013-10-17 19:07:00,
2013-10-17 14:12:00,46.9,43.9,29.72,NW,315,17.0,20.0,89,0.00,,,0.00,meteohub,2013-10-17 19:12:00,
2013-10-17 14:17:00,46.9,44.2,29.71,NW,315,20.0,20.0,90,0.00,,,0.00,meteohub,2013-10-17 19:17:00,
2013-10-17 14:22:00,46.9,44.4,29.72,WNW,293,16.0,20.0,91,0.00,,,0.00,meteohub,2013-10-17 19:22:00,
2013-10-17 14:27:00,46.9,44.8,29.72,NW,315,17.0,20.0,92,0.00,,,0.00,meteohub,2013-10-17 19:27:00,
2013-10-17 14:32:00,46.9,44.8,29.71,North,0,17.0,20.0,92,0.00,,,0.00,meteohub,2013-10-17 19:32:00,
2013-10-17 14:35:00,46.9,44.8,29.72,NW,315,12.0,19.0,92,0.00,,,0.00,meteohub,2013-10-17 19:35:00,
2013-10-17 14:41:00,46.8,44.6,29.71,NW,315,21.0,21.0,92,0.00,,,0.00,meteohub,2013-10-17 19:41:00,
2013-10-17 14:46:00,46.8,44.8,29.71,WNW,293,17.0,23.0,93,0.00,,,0.00,meteohub,2013-10-17 19:46:00,
2013-10-17 14:51:00,46.8,44.8,29.71,NW,315,17.0,23.0,93,0.00,,,0.00,meteohub,2013-10-17 19:51:00,
2013-10-17 14:56:00,46.8,44.8,29.71,NW,315,17.0,23.0,93,0.00,,,0.00,meteohub,2013-10-17 19:56:00,
2013-10-17 15:01:00,46.9,45.0,29.71,North,0,23.0,23.0,93,0.00,,,0.00,meteohub,2013-10-17 20:01:00,
2013-10-17 15:06:00,46.9,45.0,29.71,North,0,18.0,23.0,93,0.00,,,0.00,meteohub,2013-10-17 20:06:00,
2013-10-17 15:11:00,47.3,45.3,29.71,NW,315,17.0,23.0,93,0.00,,,0.00,meteohub,2013-10-17 20:11:00,
2013-10-17 15:16:00,46.4,44.2,29.72,NW,315,15.0,24.0,92,0.00,,,0.00,meteohub,2013-10-17 20:16:00,
2013-10-17 15:21:00,46.0,43.9,29.71,NW,315,20.0,24.0,92,0.00,,,0.00,meteohub,2013-10-17 20:21:00,
2013-10-17 15:26:00,45.5,43.3,29.71,NW,315,21.0,24.0,92,0.00,,,0.00,meteohub,2013-10-17 20:26:00,
2013-10-17 15:31:00,45.5,43.3,29.72,NW,315,20.0,23.0,92,0.00,,,0.00,meteohub,2013-10-17 20:31:00,
2013-10-17 15:36:00,45.1,43.0,29.72,NW,315,21.0,23.0,92,0.00,,,0.00,meteohub,2013-10-17 20:36:00,
2013-10-17 15:41:00,44.8,42.6,29.73,NW,315,18.0,23.0,92,0.00,,,0.00,meteohub,2013-10-17 20:41:00,
2013-10-17 15:47:00,44.2,42.1,29.73,West,270,23.0,23.0,92,0.00,,,0.00,meteohub,2013-10-17 20:47:00,
2013-10-17 15:52:00,43.9,41.7,29.72,NW,315,17.0,23.0,92,0.00,,,0.00,meteohub,2013-10-17 20:52:00,
2013-10-17 15:57:00,43.9,41.7,29.73,NW,315,19.0,23.0,92,0.00,,,0.00,meteohub,2013-10-17 20:57:00,
2013-10-17 16:02:00,43.7,41.5,29.73,WNW,293,18.0,23.0,92,0.00,,,0.00,meteohub,2013-10-17 21:02:00,
2013-10-17 16:07:00,43.5,41.4,29.73,NW,315,23.0,23.0,92,0.00,,,0.00,meteohub,2013-10-17 21:07:00,
2013-10-17 16:12:00,43.3,41.2,29.73,NW,315,26.0,26.0,92,0.00,,,0.00,meteohub,2013-10-17 21:12:00,
2013-10-17 16:17:00,43.2,41.0,29.73,North,0,21.0,26.0,92,0.00,,,0.00,meteohub,2013-10-17 21:17:00,
2013-10-17 16:22:00,43.0,40.8,29.73,NW,315,23.0,26.0,92,0.00,,,0.00,meteohub,2013-10-17 21:22:00,
2013-10-17 16:27:00,42.8,40.6,29.73,NW,315,27.0,27.0,92,0.00,,,0.00,meteohub,2013-10-17 21:27:00,
2013-10-17 16:32:00,42.6,40.8,29.73,North,0,24.0,27.0,93,0.00,,,0.00,meteohub,2013-10-17 21:32:00,
2013-10-17 16:38:00,42.6,40.8,29.74,NW,315,21.0,27.0,93,0.00,,,0.00,meteohub,2013-10-17 21:38:00,
2013-10-17 16:43:00,42.4,40.6,29.73,NW,315,22.0,27.0,93,0.00,,,0.00,meteohub,2013-10-17 21:43:00,
2013-10-17 16:48:00,42.4,40.8,29.73,NW,315,26.0,27.0,94,0.00,,,0.00,meteohub,2013-10-17 21:48:00,
2013-10-17 16:53:00,42.3,40.6,29.73,NW,315,24.0,26.0,94,0.00,,,0.00,meteohub,2013-10-17 21:53:00,
2013-10-17 16:58:00,42.3,40.6,29.74,North,0,24.0,30.0,94,0.00,,,0.00,meteohub,2013-10-17 21:58:00,
2013-10-17 17:03:00,42.1,40.5,29.74,NW,315,23.0,30.0,94,0.00,,,0.00,meteohub,2013-10-17 22:03:00,
2013-10-17 17:08:00,42.1,40.5,29.74,NW,315,22.0,30.0,94,0.00,,,0.00,meteohub,2013-10-17 22:08:00,
2013-10-17 17:13:00,41.9,40.3,29.74,NW,315,20.0,28.0,94,0.00,,,0.00,meteohub,2013-10-17 22:13:00,
2013-10-17 17:18:00,41.7,40.1,29.75,NW,315,20.0,24.0,94,0.00,,,0.00,meteohub,2013-10-17 22:18:00,
2013-10-17 17:23:00,41.5,39.9,29.74,NW,315,27.0,27.0,94,0.00,,,0.00,meteohub,2013-10-17 22:23:00,
2013-10-17 17:28:00,41.4,39.7,29.75,NW,315,18.0,27.0,94,0.00,,,0.00,meteohub,2013-10-17 22:28:00,
2013-10-17 17:33:00,41.2,39.6,29.75,NW,315,24.0,27.0,94,0.00,,,0.00,meteohub,2013-10-17 22:33:00,
2013-10-17 17:38:00,41.0,39.4,29.75,NW,315,27.0,27.0,94,0.00,,,0.00,meteohub,2013-10-17 22:38:00,
2013-10-17 17:44:00,41.0,39.4,29.75,NW,315,22.0,29.0,94,0.00,,,0.00,meteohub,2013-10-17 22:44:00,
2013-10-17 17:49:00,41.0,39.4,29.75,NW,315,23.0,29.0,94,0.00,,,0.00,meteohub,2013-10-17 22:49:00,
2013-10-17 17:54:00,41.0,39.4,29.75,NW,315,27.0,29.0,94,0.00,,,0.00,meteohub,2013-10-17 22:54:00,
2013-10-17 17:59:00,41.0,39.4,29.75,NW,315,25.0,27.0,94,0.00,,,0.00,meteohub,2013-10-17 22:59:00,
2013-10-17 18:04:00,40.8,39.6,29.76,NW,315,28.0,28.0,95,0.00,,,0.00,meteohub,2013-10-17 23:04:00,
2013-10-17 18:09:00,40.6,39.4,29.77,NW,315,24.0,30.0,95,0.00,,,0.00,meteohub,2013-10-17 23:09:00,
2013-10-17 18:14:00,40.5,39.2,29.76,NW,315,25.0,30.0,95,0.00,,,0.00,meteohub,2013-10-17 23:14:00,
2013-10-17 18:19:00,40.5,39.2,29.77,NW,315,24.0,30.0,95,0.00,,,0.00,meteohub,2013-10-17 23:19:00,
2013-10-17 18:24:00,40.3,39.0,29.77,NW,315,30.0,30.0,95,0.00,,,0.00,meteohub,2013-10-17 23:24:00,
2013-10-17 18:29:00,40.3,39.0,29.77,North,0,31.0,31.0,95,0.00,,,0.00,meteohub,2013-10-17 23:29:00,
2013-10-17 18:34:00,40.3,39.0,29.77,North,0,25.0,31.0,95,0.00,,,0.00,meteohub,2013-10-17 23:34:00,
2013-10-17 18:39:00,40.3,39.0,29.77,NW,315,26.0,31.0,95,0.00,,,0.00,meteohub,2013-10-17 23:39:00,
2013-10-17 18:44:00,40.5,39.2,29.78,NW,315,21.0,31.0,95,0.00,,,0.00,meteohub,2013-10-17 23:44:00,
2013-10-17 18:49:00,40.3,39.0,29.78,NW,315,24.0,31.0,95,0.00,,,0.00,meteohub,2013-10-17 23:49:00,
2013-10-17 18:54:00,40.5,39.2,29.78,NW,315,18.0,30.0,95,0.00,,,0.00,meteohub,2013-10-17 23:54:00,
2013-10-17 18:59:00,40.3,39.0,29.79,NW,315,21.0,28.0,95,0.00,,,0.00,meteohub,2013-10-17 23:59:00,
2013-10-17 19:05:00,40.3,39.2,29.79,NW,315,19.0,27.0,96,0.00,,,0.00,meteohub,2013-10-18 00:05:00,
2013-10-17 19:10:00,40.3,39.2,29.79,NW,315,23.0,24.0,96,0.00,,,0.00,meteohub,2013-10-18 00:10:00,
2013-10-17 19:15:00,40.1,39.0,29.79,North,0,23.0,27.0,96,0.00,,,0.00,meteohub,2013-10-18 00:15:00,
2013-10-17 19:20:00,40.1,39.0,29.79,WNW,293,24.0,27.0,96,0.00,,,0.00,meteohub,2013-10-18 00:20:00,
2013-10-17 19:25:00,39.9,38.8,29.80,NW,315,23.0,27.0,96,0.00,,,0.00,meteohub,2013-10-18 00:25:00,
2013-10-17 19:30:00,39.9,38.8,29.80,NW,315,24.0,29.0,96,0.00,,,0.00,meteohub,2013-10-18 00:30:00,
2013-10-17 19:35:00,39.9,38.8,29.80,North,0,23.0,29.0,96,0.00,,,0.00,meteohub,2013-10-18 00:35:00,
2013-10-17 19:40:00,39.7,38.7,29.80,North,0,27.0,30.0,96,0.00,,,0.00,meteohub,2013-10-18 00:40:00,
2013-10-17 19:45:00,39.9,38.8,29.80,NW,315,22.0,30.0,96,0.00,,,0.00,meteohub,2013-10-18 00:45:00,
2013-10-17 19:50:00,39.9,39.2,29.79,NW,315,22.0,30.0,97,0.00,,,0.00,meteohub,2013-10-18 00:50:00,
2013-10-17 19:55:00,39.9,39.2,29.80,NW,315,25.0,29.0,97,0.00,,,0.00,meteohub,2013-10-18 00:55:00,
2013-10-17 20:00:00,39.9,39.2,29.80,NW,315,19.0,29.0,97,0.00,,,0.00,meteohub,2013-10-18 01:00:00,
2013-10-17 20:06:00,39.9,39.2,29.80,NW,315,25.0,29.0,97,0.00,,,0.00,meteohub,2013-10-18 01:06:00,
2013-10-17 20:11:00,40.1,39.4,29.80,NW,315,23.0,29.0,97,0.00,,,0.00,meteohub,2013-10-18 01:11:00,
2013-10-17 20:16:00,40.1,39.4,29.80,NW,315,24.0,26.0,97,0.00,,,0.00,meteohub,2013-10-18 01:16:00,
2013-10-17 20:21:00,40.1,39.4,29.79,NW,315,21.0,27.0,97,0.00,,,0.00,meteohub,2013-10-18 01:21:00,
2013-10-17 20:26:00,40.1,39.4,29.80,WNW,293,23.0,27.0,97,0.00,,,0.00,meteohub,2013-10-18 01:26:00,
2013-10-17 20:31:00,40.1,39.4,29.80,North,0,21.0,27.0,97,0.00,,,0.00,meteohub,2013-10-18 01:31:00,
2013-10-17 20:36:00,40.1,39.4,29.80,NNW,338,22.0,23.0,97,0.00,,,0.00,meteohub,2013-10-18 01:36:00,
2013-10-17 20:41:00,40.1,39.4,29.81,NW,315,20.0,26.0,97,0.00,,,0.00,meteohub,2013-10-18 01:41:00,
2013-10-17 20:46:00,40.1,39.4,29.80,NW,315,19.0,26.0,97,0.00,,,0.00,meteohub,2013-10-18 01:46:00,
2013-10-17 20:51:00,39.9,39.2,29.80,NW,315,18.0,26.0,97,0.00,,,0.00,meteohub,2013-10-18 01:51:00,
2013-10-17 20:56:00,39.9,39.4,29.81,NW,315,21.0,23.0,98,0.00,,,0.00,meteohub,2013-10-18 01:56:00,
2013-10-17 21:02:00,40.1,39.6,29.81,NW,315,21.0,23.0,98,0.00,,,0.00,meteohub,2013-10-18 02:02:00,
2013-10-17 21:07:00,39.9,39.4,29.81,WNW,293,17.0,23.0,98,0.00,,,0.00,meteohub,2013-10-18 02:07:00,
2013-10-17 21:12:00,39.9,39.4,29.81,NW,315,15.0,21.0,98,0.00,,,0.00,meteohub,2013-10-18 02:12:00,
2013-10-17 21:17:00,39.9,39.4,29.81,NW,315,17.0,21.0,98,0.00,,,0.00,meteohub,2013-10-18 02:17:00,
2013-10-17 21:22:00,39.9,39.4,29.81,West,270,15.0,19.0,98,0.00,,,0.00,meteohub,2013-10-18 02:22:00,
2013-10-17 21:27:00,39.9,39.4,29.81,NW,315,15.0,18.0,98,0.00,,,0.00,meteohub,2013-10-18 02:27:00,
2013-10-17 21:32:00,39.7,39.2,29.81,NW,315,17.0,20.0,98,0.00,,,0.00,meteohub,2013-10-18 02:32:00,
2013-10-17 21:38:00,39.7,39.2,29.81,NW,315,11.0,20.0,98,0.00,,,0.00,meteohub,2013-10-18 02:38:00,
2013-10-17 21:43:00,39.7,39.2,29.81,NW,315,11.0,20.0,98,0.00,,,0.00,meteohub,2013-10-18 02:43:00,
2013-10-17 21:48:00,39.7,39.2,29.81,NW,315,15.0,17.0,98,0.00,,,0.00,meteohub,2013-10-18 02:48:00,
2013-10-17 21:53:00,39.7,39.2,29.82,West,270,14.0,15.0,98,0.00,,,0.00,meteohub,2013-10-18 02:53:00,
2013-10-17 21:58:00,39.7,39.2,29.81,West,270,12.0,16.0,98,0.00,,,0.00,meteohub,2013-10-18 02:58:00,
2013-10-17 22:03:00,39.7,39.2,29.82,NW,315,15.0,16.0,98,0.00,,,0.00,meteohub,2013-10-18 03:03:00,
2013-10-17 22:09:00,39.9,39.4,29.82,West,270,15.0,15.0,98,0.00,,,0.00,meteohub,2013-10-18 03:09:00,
2013-10-17 22:14:00,39.9,39.7,29.82,NW,315,13.0,15.0,99,0.00,,,0.00,meteohub,2013-10-18 03:14:00,
2013-10-17 22:19:00,39.9,39.7,29.82,NW,315,16.0,16.0,99,0.00,,,0.00,meteohub,2013-10-18 03:19:00,
2013-10-17 22:24:00,39.9,39.7,29.82,NW,315,17.0,17.0,99,0.00,,,0.00,meteohub,2013-10-18 03:24:00,
2013-10-17 22:29:00,39.9,39.7,29.82,NW,315,13.0,17.0,99,0.00,,,0.00,meteohub,2013-10-18 03:29:00,
2013-10-17 22:34:00,40.1,39.9,29.82,West,270,15.0,17.0,99,0.00,,,0.00,meteohub,2013-10-18 03:34:00,
2013-10-17 22:39:00,40.1,39.9,29.81,NW,315,17.0,17.0,99,0.00,,,0.00,meteohub,2013-10-18 03:39:00,
2013-10-17 22:44:00,40.3,40.1,29.82,NW,315,14.0,18.0,99,0.00,,,0.00,meteohub,2013-10-18 03:44:00,
2013-10-17 22:49:00,40.3,40.1,29.82,West,270,17.0,18.0,99,0.00,,,0.00,meteohub,2013-10-18 03:49:00,
2013-10-17 22:54:00,40.1,39.9,29.81,NW,315,16.0,18.0,99,0.00,,,0.00,meteohub,2013-10-18 03:54:00,
2013-10-17 22:59:00,40.1,39.9,29.82,NW,315,18.0,18.0,99,0.00,,,0.00,meteohub,2013-10-18 03:59:00,
2013-10-17 23:01:00,39.9,39.7,29.82,West,270,21.0,21.0,99,0.00,,,0.00,meteohub,2013-10-18 04:01:00,
2013-10-17 23:02:00,39.9,39.7,29.82,West,270,17.0,17.0,99,0.00,,,0.00,meteohub,2013-10-18 04:02:00,
2013-10-17 23:03:00,39.9,39.7,29.82,West,270,17.0,17.0,99,0.00,,,0.00,meteohub,2013-10-18 04:03:00,
2013-10-17 23:06:00,39.9,39.4,29.82,NW,315,17.0,21.0,98,0.00,,,0.00,meteohub,2013-10-18 04:06:00,
2013-10-17 23:11:00,39.9,39.4,29.82,NW,315,15.0,21.0,98,0.00,,,0.00,meteohub,2013-10-18 04:11:00,
2013-10-17 23:16:00,39.9,39.4,29.82,NW,315,15.0,21.0,98,0.00,,,0.00,meteohub,2013-10-18 04:16:00,
2013-10-17 23:21:00,39.9,39.2,29.82,NW,315,15.0,18.0,97,0.00,,,0.00,meteohub,2013-10-18 04:21:00,
2013-10-17 23:26:00,39.9,39.2,29.82,NW,315,16.0,18.0,97,0.00,,,0.00,meteohub,2013-10-18 04:26:00,
2013-10-17 23:31:00,39.9,39.2,29.82,NW,315,17.0,18.0,97,0.00,,,0.00,meteohub,2013-10-18 04:31:00,
2013-10-17 23:36:00,39.9,39.2,29.83,NW,315,14.0,18.0,97,0.00,,,0.00,meteohub,2013-10-18 04:36:00,
2013-10-17 23:41:00,39.9,39.2,29.82,NW,315,15.0,18.0,97,0.00,,,0.00,meteohub,2013-10-18 04:41:00,
2013-10-17 23:46:00,39.9,39.2,29.82,NW,315,16.0,17.0,97,0.00,,,0.00,meteohub,2013-10-18 04:46:00,
2013-10-17 23:51:00,39.9,39.2,29.82,SW,225,15.0,17.0,97,0.00,,,0.00,meteohub,2013-10-18 04:51:00,
2013-10-17 23:56:00,39.9,38.8,29.82,NW,315,15.0,17.0,96,0.00,,,0.00,meteohub,2013-10-18 04:56:00,